Regional Weather Roundup
Issued by NWS

Home | Current Version | Previous Version | Text Only | Print | Product List | Glossary On
Versions: 1 2 3 4 5 6 7 8 9 10 11 12 13 14 15 16 17 18 19 20 21 22 23 24 25 26 27 28 29 30 31 32 33 34 35 36 37 38 39 40 41 42 43 44 45 46 47 48 49 50
000
ASUS43 KDTX 161610
RWRMI
MICHIGAN HOURLY REGIONAL WEATHER ROUNDUP
NATIONAL WEATHER SERVICE DETROIT/PONTIAC MI
1200 PM EDT TUE JUL 16 2019

NOTE: "FAIR" INDICATES FEW OR NO CLOUDS BELOW 12,000 FEET WITH NO
SIGNIFICANT WEATHER AND/OR OBSTRUCTION TO VISIBILITY.

MIZ047>049-052>055-059>063-066>070-074>076-081>083-161700-
SOUTHEAST LOWER MICHIGAN

CITY           SKY/WX    TMP DP  RH WIND       PRES   REMARKS
ADRIAN         LGT RAIN  76  71  85 SW10      30.02S
ALMA           CLOUDY    80  70  70 S9        29.97S
ANN ARBOR      CLOUDY    80  70  71 SW9G20    30.01R
BAD AXE        PTSUNNY   80  67  64 SW9G22    29.95S
CARO           CLOUDY    75  71  89 S7        29.97S
DETROIT CITY   CLOUDY    79  69  71 SW8       30.01S
DETROIT        CLOUDY    81  69  67 SW15      30.01S
FLINT          CLOUDY    77  71  82 SW7       29.99S
GROSSE ILE     LGT RAIN  79  69  70 SW10      30.01R
HILLSDALE      DRIZZLE   74  71  90 S7        30.02S
HOWELL         CLOUDY    78  68  72 SW7       30.00F

CITY           SKY/WX    TMP DP  RH WIND       PRES   REMARKS
JACKSON        LGT RAIN  77  73  87 S10G17    30.01S
LAMBERTVILLE   RAIN     N/A N/A N/A SW7       30.02R
LANSING        PTSUNNY   79  69  71 SW13      29.99S
LAPEER         DRIZZLE   76  70  82 SW15      30.01R
MASON          CLOUDY    76  72  86 SW6       30.00F
MONROE         LGT RAIN  77  77  98 SW8       30.01S
MT. CLEMENS    PTSUNNY   79  72  79 S12       29.99S
PONTIAC        LGT RAIN  76  69  79 SW9       30.00S
PORT HOPE        N/A     82  68  62 SW14G22   29.93S
PORT HURON     CLOUDY    79  70  73 SW3       30.00S
TRI CITIES     CLOUDY    79  70  74 SW17      29.96R
MIDLAND        CLOUDY    79  68  70 SW10G16   29.95R
TROY           LGT RAIN  77  70  77 SW7       30.03R
SAGINAW HB     CLOUDY    81  70  69 SW15      29.96S
$$
MIZ043>046-050>051-056>058-064>065-071>073-077>080-161700-
SOUTHWEST LOWER MICHIGAN

CITY           SKY/WX    TMP DP  RH WIND       PRES   REMARKS
BATTLE CREEK   CLOUDY    76  73  91 SW5       30.00S
BENTON HARBOR  PTSUNNY   78  72  81 S12G17    29.96R
BIG RAPIDS     CLOUDY    74  70  87 SW7       29.96S
COLDWATER      LGT RAIN  75  74  97 S6        30.00S
FREMONT        CLOUDY    74  67  79 W12       29.97R
HOLLAND        PTSUNNY   82  71  69 SW17G23   29.97S
GRAND RAPIDS   PTSUNNY   80  70  71 SW14      29.97S
IONIA          CLOUDY    80  67  65 SW10      29.97S
KALAMAZOO      CLOUDY    78  71  79 S9        29.99S
LUDINGTON      FAIR      75  69  81 SW15      29.94R
MARSHALL       CLOUDY    76  76 100 S8        30.00S
MOUNT PLEASANT CLOUDY    78  69  74 W7        29.96S
MUSKEGON       CLOUDY    76  69  79 SW12      29.97R
SOUTH HAVEN    PTSUNNY   78  73  85 SW5       29.97R
$$
MIZ016>042-161700-
NORTHERN LOWER MICHIGAN

CITY           SKY/WX    TMP DP  RH WIND       PRES   REMARKS
ALPENA         FAIR      81  68  64 SW9       29.89R
BEAVER ISLAND  FAIR      75  66  73 SW14G22   29.87R
BELLAIRE       FAIR      83  68  61 SW6G16    29.89S
CADILLAC       FAIR      82  65  57 SW15G21   29.94S
CHARLEVOIX     FAIR      82  70  67 SW14G24   29.90R
FRANKFORT      FAIR      79  65  61 SW13G18   29.92R
GAYLORD        PTSUNNY   78  66  66 W16       29.92R
GRAYLING       FAIR      80  66  61 SW13G18   29.92R
HARBOR SPRINGS PTSUNNY   79  69  73 W9        29.87R
HOUGHTON LAKE  PTSUNNY   78  64  61 W10       29.95
MANISTEE       FAIR      82  68  62 W15       29.91S
OSCODA         PTSUNNY   84  65  53 SW15G21   29.90S
PELLSTON       FAIR      77  67  71 W13G26    29.87R
ROGERS CITY    FAIR      76  67  73 SW10G16   29.87S
TRAVERSE CITY  FAIR      83  67  58 SW14G22   29.88R
$$
MIZ007>008-015-161700-
EASTERN UPPER MICHIGAN

CITY           SKY/WX    TMP DP  RH WIND       PRES   REMARKS
KINROSS        CLOUDY    76  67  73 W13G20    29.85R
MACKINAC ISLAN FAIR      72  68  87 SW10G25   29.86R
NEWBERRY       CLOUDY    76  71  87 S6        29.83S
S. S. MARIE    PTSUNNY   82  68  62 W8        29.82S
MUNISING         N/A     76  67  73 CALM      29.82R
$$
MIZ004>006-011>014-085-161700-
CENTRAL UPPER MICHIGAN

CITY           SKY/WX    TMP DP  RH WIND       PRES   REMARKS
MANISTIQUE     CLOUDY    74  68  83 S6        29.84R
ESCANABA       FAIR      80  70  71 W9        29.84R
MENOMINEE      FAIR      80  68  66 W7        29.87R
SAWYER-GWINN   PTSUNNY   79  68  69 W8        29.84R
$$
MIZ001>003-009>011-084-161700-
WESTERN UPPER MICHIGAN

CITY           SKY/WX    TMP DP  RH WIND       PRES   REMARKS
IRON MOUNTAIN  PTSUNNY   78  68  71 NW5       29.86R
HOUGHTON       FAIR      77  64  64 W14       29.84R
COPPER HARBOR    N/A     68  62  81 N13       29.80R
IRONWOOD       FAIR      77  66  68 W5        29.89R
$$

ABBREVIATIONS USED IN REMARKS
   TC - TEMPERATURE IN CELSIUS
  WCI - WIND CHILL INDEX
   HX - HEAT INDEX
  VSB - VISIBILITY





USA.gov is the U.S. government's official web portal to all federal, state and local government web resources and services.